When you browse on this site, cookies collect data to enhance your experience and personalize the content and advertising you see.
Visit our Privacy Policy to learn more. By continuing to use the site, you agree to this use of cookies and data.
  • In Portugal
  • List of Countries
  • For 7 days
  • Water Temperature
  • Weather Map
  • Weather Widgets
  • user-avatar
    Login

    Hourly Weather Lezhe

    Today, 15 October, Tuesday

    Time Temperature Precipitation Wind Pressure Humidity
    00:00 +16°C° 0 mm 0 mps 740 mmHg 74%
    01:00 +16°C° 0 mm 0 mps 740 mmHg 75%
    02:00 +16°C° 0 mm 0 mps 740 mmHg 76%
    03:00 +16°C° 0 mm 0 mps 740 mmHg 76%
    04:00 +16°C° 0 mm 1 mps 739 mmHg 76%
    05:00 +18°C° 0 mm 1 mps 739 mmHg 74%
    06:00 +19°C° 0 mm 1 mps 739 mmHg 72%
    07:00 +20°C° 0 mm 1 mps 740 mmHg 67%
    08:00 +21°C° 0 mm 1 mps 740 mmHg 61%
    09:00 +23°C° 0 mm 1 mps 740 mmHg 55%
    10:00 +25°C° 0 mm 1 mps 740 mmHg 50%
    11:00 +25°C° 0 mm 1 mps 739 mmHg 49%
    12:00 +26°C° 0 mm 2 mps 739 mmHg 48%
    13:00 +26°C° 0 mm 2 mps 739 mmHg 47%
    14:00 +25°C° 0 mm 2 mps 738 mmHg 51%
    15:00 +25°C° 0 mm 1 mps 738 mmHg 56%
    16:00 +24°C° 0 mm 1 mps 737 mmHg 60%
    17:00 +22°C° 0 mm 1 mps 738 mmHg 66%
    18:00 +19°C° 0 mm 0 mps 738 mmHg 71%
    19:00 +17°C° 0 mm 0 mps 738 mmHg 76%
    20:00 +17°C° 0 mm 0 mps 738 mmHg 76%
    21:00 +19°C° 0 mm 1 mps 738 mmHg 76%
    22:00 +18°C° 0 mm 1 mps 738 mmHg 76%
    23:00 +18°C° 0 mm 1 mps 738 mmHg 77%

    Tomorrow, 16 October, Wednesday

    Time Temperature Precipitation Wind Pressure Humidity
    00:00 +18°C° 0 mm 1 mps 738 mmHg 78%
    01:00 +16°C° 0 mm 1 mps 738 mmHg 78%
    02:00 +16°C° 0 mm 1 mps 738 mmHg 77%
    03:00 +16°C° 0 mm 1 mps 738 mmHg 77%
    04:00 +16°C° 0 mm 1 mps 738 mmHg 76%
    05:00 +16°C° 0 mm 1 mps 738 mmHg 72%
    06:00 +18°C° 0 mm 1 mps 738 mmHg 69%
    07:00 +18°C° 0 mm 1 mps 738 mmHg 65%
    08:00 +21°C° 0 mm 1 mps 738 mmHg 58%
    09:00 +23°C° 0 mm 1 mps 738 mmHg 50%
    10:00 +25°C° 0 mm 1 mps 738 mmHg 43%
    11:00 +25°C° 0 mm 1 mps 738 mmHg 41%
    12:00 +26°C° 0 mm 1 mps 738 mmHg 40%
    13:00 +26°C° 0 mm 2 mps 738 mmHg 38%
    14:00 +26°C° 0 mm 1 mps 737 mmHg 43%
    15:00 +25°C° 0 mm 1 mps 737 mmHg 48%
    16:00 +24°C° 0 mm 1 mps 737 mmHg 53%
    17:00 +22°C° 0 mm 1 mps 737 mmHg 58%
    18:00 +21°C° 0 mm 1 mps 737 mmHg 62%
    19:00 +19°C° 0 mm 1 mps 737 mmHg 67%
    20:00 +19°C° 0 mm 1 mps 738 mmHg 66%
    21:00 +19°C° 0 mm 1 mps 738 mmHg 65%
    22:00 +18°C° 0 mm 1 mps 738 mmHg 64%
    23:00 +18°C° 0 mm 1 mps 738 mmHg 64%

    Day after tomorrow, 17 October, Thursday

    Time Temperature Precipitation Wind Pressure Humidity
    00:00 +18°C° 0 mm 1 mps 738 mmHg 63%
    01:00 +18°C° 0 mm 1 mps 738 mmHg 62%
    02:00 +18°C° 0 mm 1 mps 738 mmHg 61%
    03:00 +16°C° 0 mm 1 mps 738 mmHg 60%
    04:00 +16°C° 0 mm 1 mps 738 mmHg 60%
    05:00 +18°C° 0 mm 1 mps 738 mmHg 59%
    06:00 +18°C° 0 mm 1 mps 738 mmHg 58%
    07:00 +18°C° 0 mm 1 mps 738 mmHg 57%
    08:00 +20°C° 0 mm 1 mps 738 mmHg 52%
    09:00 +23°C° 0 mm 1 mps 739 mmHg 46%
    10:00 +25°C° 0 mm 1 mps 739 mmHg 40%
    11:00 +25°C° 0 mm 1 mps 739 mmHg 40%
    12:00 +26°C° 0 mm 1 mps 738 mmHg 39%
    13:00 +26°C° 0 mm 2 mps 738 mmHg 38%
    14:00 +25°C° 0 mm 2 mps 738 mmHg 44%
    15:00 +24°C° 0 mm 2 mps 738 mmHg 50%
    16:00 +23°C° 0 mm 1 mps 738 mmHg 56%
    17:00 +22°C° 0 mm 1 mps 738 mmHg 60%
    18:00 +20°C° 0 mm 1 mps 738 mmHg 65%
    19:00 +19°C° 0 mm 1 mps 739 mmHg 70%
    20:00 +18°C° 0 mm 1 mps 739 mmHg 69%
    21:00 +18°C° 0 mm 1 mps 739 mmHg 69%
    22:00 +18°C° 0 mm 1 mps 739 mmHg 69%
    23:00 +18°C° 0 mm 1 mps 739 mmHg 69%

    18 October, Friday

    Time Temperature Precipitation Wind Pressure Humidity
    00:00 +16°C° 0 mm 1 mps 739 mmHg 68%
    01:00 +16°C° 0 mm 1 mps 739 mmHg 68%
    02:00 +16°C° 0 mm 1 mps 739 mmHg 68%
    03:00 +16°C° 0 mm 1 mps 739 mmHg 67%
    04:00 +16°C° 0 mm 1 mps 739 mmHg 67%
    05:00 +16°C° 0 mm 1 mps 739 mmHg 65%
    06:00 +18°C° 0 mm 1 mps 739 mmHg 64%
    07:00 +18°C° 0 mm 1 mps 739 mmHg 62%
    08:00 +20°C° 0 mm 1 mps 739 mmHg 56%
    09:00 +22°C° 0 mm 1 mps 739 mmHg 50%
    10:00 +24°C° 0 mm 1 mps 739 mmHg 43%
    11:00 +25°C° 0 mm 1 mps 739 mmHg 43%
    12:00 +25°C° 0 mm 2 mps 739 mmHg 42%
    13:00 +26°C° 0 mm 2 mps 738 mmHg 42%
    14:00 +25°C° 0 mm 2 mps 738 mmHg 48%
    15:00 +24°C° 0 mm 2 mps 738 mmHg 54%
    16:00 +23°C° 0 mm 2 mps 738 mmHg 60%
    17:00 +21°C° 0 mm 1 mps 738 mmHg 66%
    18:00 +20°C° 0 mm 1 mps 738 mmHg 72%
    19:00 +16°C° 0 mm 0 mps 739 mmHg 78%
    20:00 +16°C° 0 mm 0 mps 739 mmHg 77%
    21:00 +18°C° 0 mm 1 mps 739 mmHg 77%
    22:00 +16°C° 0 mm 1 mps 739 mmHg 76%
    23:00 +16°C° 0 mm 1 mps 739 mmHg 76%

    19 October, Saturday

    Time Temperature Precipitation Wind Pressure Humidity
    00:00 +16°C° 0 mm 1 mps 739 mmHg 75%
    01:00 +16°C° 0 mm 1 mps 739 mmHg 74%
    02:00 +16°C° 0 mm 1 mps 739 mmHg 74%
    03:00 +16°C° 0 mm 1 mps 739 mmHg 73%
    04:00 +15°C° 0 mm 1 mps 739 mmHg 72%
    05:00 +16°C° 0 mm 1 mps 739 mmHg 70%
    06:00 +16°C° 0 mm 1 mps 739 mmHg 68%
    07:00 +18°C° 0 mm 1 mps 739 mmHg 66%
    08:00 +20°C° 0 mm 1 mps 739 mmHg 60%
    09:00 +22°C° 0 mm 1 mps 739 mmHg 54%
    10:00 +24°C° 0 mm 1 mps 739 mmHg 47%
    11:00 +24°C° 0 mm 1 mps 739 mmHg 47%
    12:00 +25°C° 0 mm 1 mps 738 mmHg 46%
    13:00 +25°C° 0 mm 2 mps 738 mmHg 45%
    14:00 +24°C° 0 mm 2 mps 738 mmHg 50%
    15:00 +23°C° 0 mm 1 mps 738 mmHg 55%
    16:00 +23°C° 0 mm 1 mps 738 mmHg 60%
    17:00 +21°C° 0 mm 1 mps 738 mmHg 66%
    18:00 +20°C° 0 mm 1 mps 738 mmHg 72%
    19:00 +16°C° 0 mm 0 mps 739 mmHg 79%
    20:00 +16°C° 0 mm 0 mps 739 mmHg 78%
    21:00 +18°C° 0 mm 1 mps 739 mmHg 78%
    22:00 +16°C° 0 mm 1 mps 739 mmHg 77%
    23:00 +16°C° 0 mm 1 mps 739 mmHg 77%

    20 October, Sunday

    Time Temperature Precipitation Wind Pressure Humidity
    00:00 +16°C° 0 mm 1 mps 739 mmHg 77%
    01:00 +16°C° 0 mm 1 mps 739 mmHg 76%
    02:00 +16°C° 0 mm 1 mps 739 mmHg 77%
    03:00 +16°C° 0 mm 1 mps 739 mmHg 77%
    04:00 +15°C° 0 mm 1 mps 739 mmHg 78%
    05:00 +16°C° 0 mm 1 mps 739 mmHg 76%
    06:00 +16°C° 0 mm 1 mps 739 mmHg 74%
    07:00 +18°C° 0 mm 1 mps 740 mmHg 72%
    08:00 +20°C° 0 mm 1 mps 740 mmHg 65%
    09:00 +22°C° 0 mm 1 mps 740 mmHg 58%
    10:00 +24°C° 0 mm 1 mps 740 mmHg 51%
    11:00 +24°C° 0 mm 1 mps 740 mmHg 51%
    12:00 +24°C° 0 mm 1 mps 740 mmHg 50%
    13:00 +25°C° 0 mm 2 mps 739 mmHg 50%
    14:00 +24°C° 0 mm 1 mps 739 mmHg 54%
    15:00 +23°C° 0 mm 1 mps 739 mmHg 59%
    16:00 +22°C° 0 mm 1 mps 739 mmHg 64%
    17:00 +21°C° 0 mm 1 mps 739 mmHg 69%
    18:00 +20°C° 0 mm 1 mps 740 mmHg 74%
    19:00 +18°C° 0 mm 1 mps 740 mmHg 79%
    20:00 +18°C° 0 mm 1 mps 740 mmHg 79%
    21:00 +18°C° 0 mm 1 mps 740 mmHg 78%
    22:00 +18°C° 0 mm 1 mps 741 mmHg 78%
    23:00 +16°C° 0 mm 1 mps 741 mmHg 77%
    Show more